Content
SEND FEEDBACK

Daily
Averages
Monthly
Summary
United States of America

BLACK EAGLE, MONTANA


Home > North America > United States > Montana
Elevation: 3365 feet     Latitude: 47 31N     Longitude: 111 18W

WEATHER
 
SELECT A DAY
Number of Records: 133,890;   Date Range: 1/1/95 - 10/20/14
 
SHARE

PRINT THIS DATA

[ ← Previous Day ]
WEATHER ALMANAC - JANUARY 23, 2013
[ Next Day → ]
[ °C ]   °F
Weather ElementAverageHighLow
Temperature18.9 °F24.1 °F (11:56 pm)15.8 °F (10:06 am)
Dewpoint13.2 °F16 °F (11:56 pm)12 °F (5:56 am)
Humidity78.5 %86 % (10:06 am)71 % (1:56 pm)
Barometer30.19 in30.32 in (5:56 am)30.00 in (11:56 pm)
Wind Speed4.4 mph8.1 mph (1:56 am)
Weather ElementAverage
Visibility10 mi
Wind DirectionENE (83.8 °)

Weather ElementTotal
Precipitation---
Heating Degree Days45.1 (Base 65)
Averaged from 24 records on January 23, 2013
WEATHER CONDITIONS BREAKOUT
WIND DIRECTION BREAKOUT
WEATHER BY HOUR - JANUARY 23, 2013
[ °C ]   °F
Local TimeTemperatureDewpointHumidityBarometerVisibilityWind DirectionWind SpeedGust SpeedPrecipitationEventsConditions
1:56 AM18.0 °F12.9 °F81 %30.23 in10.0 miNorth (10°)8.1 mphClear
2:56 AM18.0 °F12.9 °F81 %30.25 in10.0 miNorth (360°)4.6 mphClear
3:56 AM18.0 °F12.9 °F81 %30.26 in10.0 miNNE (30°)3.5 mphClear
4:56 AM17.1 °F12.9 °F84 %30.28 in10.0 miNNE (20°)3.5 mphClear
5:08 AM17.6 °F12.2 °F79 %30.08 in10.0 miNNE (30°)4.6 mphPartly Cloudy
5:56 AM17.1 °F12.0 °F81 %30.32 in10.0 miNE (50°)3.5 mphClear
6:56 AM17.1 °F12.0 °F81 %30.31 in10.0 miNE (40°)3.5 mphClear
7:56 AM16.0 °F12.0 °F84 %30.29 in10.0 miNNE (20°)6.9 mphClear
8:56 AM16.0 °F12.0 °F84 %30.30 in10.0 miNNE (20°)5.8 mphClear
9:56 AM16.0 °F12.0 °F84 %30.31 in10.0 miNE (40°)5.8 mphClear
10:06 AM15.8 °F12.2 °F86 %30.05 in10.0 miNE (50°)5.8 mphPartly Cloudy
10:56 AM18.0 °F12.9 °F81 %30.30 in10.0 miNE (40°)5.8 mphClear
11:56 AM19.0 °F12.9 °F77 %30.27 in10.0 miNorth (10°)5.8 mphClear
12:56 PM21.0 °F14.0 °F74 %30.24 in10.0 miNorth (360°)5.8 mphClear
1:56 PM21.0 °F12.9 °F71 %30.21 in10.0 miNNE (20°)6.9 mphClear
2:56 PM21.0 °F12.9 °F71 %30.17 in10.0 miNNE (30°)5.8 mphClear
3:56 PM21.9 °F14.0 °F72 %30.17 in10.0 miNorth (350°)4.6 mphClear
4:56 PM21.9 °F14.0 °F72 %30.15 in10.0 miCalmClear
5:56 PM21.9 °F14.0 °F72 %30.12 in10.0 miNorth (10°)3.5 mphClear
7:56 PM19.9 °F14.0 °F78 %30.08 in10.0 miCalmClear
8:56 PM19.9 °F14.0 °F78 %30.07 in10.0 miNNW (340°)3.5 mphClear
9:56 PM19.0 °F14.0 °F81 %30.05 in10.0 miCalmClear
10:56 PM19.0 °F14.0 °F81 %30.03 in10.0 miCalmClear
11:56 PM24.1 °F16.0 °F71 %30.00 in10.0 miSouth (180°)8.1 mphClear
Hourly data recorded from KGFA, located miles away from Black Eagle, Montana







STORIES FROM OUR PARTNERS